TimeEST,TemperatureF,Dew PointF,Humidity,Sea Level PressureIn,VisibilityMPH,Wind Direction,Wind SpeedMPH,Gust SpeedMPH,PrecipitationIn,Events,Conditions,WindDirDegrees,DateUTC
12:03 AM,33.8,32.0,93,30.51,10.0,North,3.5,-,N/A,,Clear,360,2012-11-17 05:03:00
12:25 AM,32.0,30.2,93,30.51,10.0,Calm,Calm,-,N/A,,Clear,0,2012-11-17 05:25:00
12:46 AM,32.0,30.2,93,30.51,10.0,Calm,Calm,-,N/A,,Clear,0,2012-11-17 05:46:00
1:07 AM,32.0,32.0,100,30.52,10.0,Calm,Calm,-,N/A,,Clear,0,2012-11-17 06:07:00
1:29 AM,32.0,30.2,93,30.52,10.0,North,3.5,-,N/A,,Clear,10,2012-11-17 06:29:00
1:50 AM,32.0,28.4,87,30.52,10.0,Calm,Calm,-,N/A,,Clear,0,2012-11-17 06:50:00
2:11 AM,30.2,30.2,100,30.53,10.0,Calm,Calm,-,N/A,,Clear,0,2012-11-17 07:11:00
2:32 AM,30.2,30.2,100,30.54,10.0,Calm,Calm,-,N/A,,Clear,0,2012-11-17 07:32:00
2:54 AM,30.2,30.2,100,30.55,10.0,Calm,Calm,-,N/A,,Clear,0,2012-11-17 07:54:00
3:15 AM,30.2,28.4,93,30.55,10.0,NE,3.5,-,N/A,,Clear,50,2012-11-17 08:15:00
3:36 AM,28.4,28.4,100,30.55,10.0,Calm,Calm,-,N/A,,Clear,0,2012-11-17 08:36:00
3:58 AM,28.4,28.4,100,30.56,10.0,Calm,Calm,-,N/A,,Clear,0,2012-11-17 08:58:00
4:19 AM,28.4,28.4,100,30.55,10.0,Calm,Calm,-,N/A,,Clear,0,2012-11-17 09:19:00
4:40 AM,28.4,28.4,100,30.56,10.0,Calm,Calm,-,N/A,,Clear,0,2012-11-17 09:40:00
5:01 AM,28.4,28.4,100,30.57,10.0,Calm,Calm,-,N/A,,Clear,0,2012-11-17 10:01:00
5:23 AM,28.4,28.4,100,30.57,10.0,Calm,Calm,-,N/A,,Clear,0,2012-11-17 10:23:00
5:44 AM,28.4,28.4,100,30.58,10.0,Calm,Calm,-,N/A,,Clear,0,2012-11-17 10:44:00
6:26 AM,28.4,28.4,100,30.60,10.0,Calm,Calm,-,N/A,,Clear,0,2012-11-17 11:26:00
6:48 AM,26.6,26.6,100,30.61,10.0,Calm,Calm,-,N/A,,Clear,0,2012-11-17 11:48:00
7:09 AM,26.6,26.6,100,30.62,10.0,Calm,Calm,-,N/A,,Clear,0,2012-11-17 12:09:00
7:51 AM,28.4,28.4,100,30.63,10.0,Calm,Calm,-,N/A,,Clear,0,2012-11-17 12:51:00
8:13 AM,30.2,30.2,100,30.64,10.0,Calm,Calm,-,N/A,,Clear,0,2012-11-17 13:13:00
8:34 AM,30.2,30.2,100,30.64,10.0,Calm,Calm,-,N/A,,Clear,0,2012-11-17 13:34:00
8:55 AM,32.0,32.0,100,30.65,10.0,Calm,Calm,-,N/A,,Clear,0,2012-11-17 13:55:00
9:16 AM,33.8,32.0,93,30.65,10.0,Calm,Calm,-,N/A,,Clear,0,2012-11-17 14:16:00
9:37 AM,35.6,32.0,87,30.65,10.0,Calm,Calm,-,N/A,,Clear,0,2012-11-17 14:37:00
9:59 AM,37.4,32.0,81,30.66,10.0,Calm,Calm,-,N/A,,Clear,0,2012-11-17 14:59:00
10:20 AM,39.2,32.0,75,30.66,10.0,Calm,Calm,-,N/A,,Clear,0,2012-11-17 15:20:00
10:41 AM,42.8,32.0,66,30.66,10.0,Calm,Calm,-,N/A,,Clear,0,2012-11-17 15:41:00
11:02 AM,42.8,32.0,66,30.65,10.0,Calm,Calm,-,N/A,,Clear,0,2012-11-17 16:02:00
11:24 AM,46.4,32.0,57,30.63,10.0,Calm,Calm,-,N/A,,Clear,0,2012-11-17 16:24:00
11:45 AM,46.4,32.0,57,30.63,10.0,SSW,3.5,-,N/A,,Clear,210,2012-11-17 16:45:00
12:06 PM,48.2,30.2,50,30.62,10.0,Calm,Calm,-,N/A,,Clear,0,2012-11-17 17:06:00
12:27 PM,50.0,30.2,47,30.61,10.0,Calm,Calm,-,N/A,,Clear,0,2012-11-17 17:27:00
12:49 PM,50.0,30.2,47,30.60,10.0,Calm,Calm,-,N/A,,Clear,0,2012-11-17 17:49:00
1:10 PM,51.8,30.2,44,30.60,10.0,West,3.5,-,N/A,,Clear,260,2012-11-17 18:10:00
1:31 PM,51.8,30.2,44,30.59,10.0,Calm,Calm,-,N/A,,Clear,0,2012-11-17 18:31:00
1:52 PM,51.8,30.2,44,30.59,10.0,Calm,Calm,-,N/A,,Clear,0,2012-11-17 18:52:00
2:56 PM,53.6,30.2,41,30.57,10.0,South,3.5,-,N/A,,Clear,180,2012-11-17 19:56:00
3:17 PM,53.6,30.2,41,30.57,7.0,Calm,Calm,-,N/A,,Clear,0,2012-11-17 20:17:00
3:39 PM,53.6,30.2,41,30.57,10.0,SSW,4.6,-,N/A,,Clear,210,2012-11-17 20:39:00
4:00 PM,53.6,30.2,41,30.58,10.0,SSW,4.6,-,N/A,,Clear,200,2012-11-17 21:00:00
4:21 PM,51.8,30.2,44,30.59,10.0,Calm,Calm,-,N/A,,Clear,0,2012-11-17 21:21:00
4:42 PM,50.0,28.4,43,30.59,10.0,Calm,Calm,-,N/A,,Clear,0,2012-11-17 21:42:00
5:03 PM,46.4,28.4,50,30.60,10.0,SSW,3.5,-,N/A,,Clear,200,2012-11-17 22:03:00
5:25 PM,46.4,28.4,50,30.60,10.0,South,3.5,-,N/A,,Clear,190,2012-11-17 22:25:00
5:46 PM,46.4,28.4,50,30.60,10.0,Calm,Calm,-,N/A,,Clear,0,2012-11-17 22:46:00
6:07 PM,44.6,28.4,53,30.61,10.0,NNW,3.5,-,N/A,,Clear,330,2012-11-17 23:07:00
6:28 PM,44.6,30.2,57,30.60,10.0,NNW,5.8,-,N/A,,Clear,330,2012-11-17 23:28:00
6:50 PM,42.8,30.2,61,30.60,10.0,NNW,4.6,-,N/A,,Clear,340,2012-11-17 23:50:00
7:11 PM,42.8,30.2,61,30.60,10.0,NNW,5.8,-,N/A,,Clear,330,2012-11-18 00:11:00
7:32 PM,41.0,30.2,65,30.59,10.0,NNW,5.8,-,N/A,,Clear,340,2012-11-18 00:32:00
7:53 PM,41.0,30.2,65,30.59,10.0,North,5.8,-,N/A,,Clear,350,2012-11-18 00:53:00
8:15 PM,41.0,30.2,65,30.60,10.0,NNW,5.8,-,N/A,,Clear,340,2012-11-18 01:15:00
8:36 PM,35.6,30.2,81,30.62,10.0,Calm,Calm,-,N/A,,Clear,0,2012-11-18 01:36:00
8:57 PM,35.6,30.2,81,30.62,10.0,Calm,Calm,-,N/A,,Clear,0,2012-11-18 01:57:00
9:18 PM,35.6,30.2,81,30.62,10.0,Calm,Calm,-,N/A,,Clear,0,2012-11-18 02:18:00
9:40 PM,35.6,28.4,75,30.62,10.0,Calm,Calm,-,N/A,,Clear,0,2012-11-18 02:40:00
10:01 PM,33.8,28.4,81,30.62,10.0,Calm,Calm,-,N/A,,Clear,0,2012-11-18 03:01:00
10:22 PM,33.8,30.2,87,30.63,10.0,Calm,Calm,-,N/A,,Clear,0,2012-11-18 03:22:00
10:43 PM,32.0,30.2,93,30.62,10.0,NNE,3.5,-,N/A,,Clear,20,2012-11-18 03:43:00
11:05 PM,33.8,30.2,87,30.63,10.0,Calm,Calm,-,N/A,,Clear,0,2012-11-18 04:05:00
11:26 PM,32.0,30.2,93,30.63,10.0,Calm,Calm,-,N/A,,Clear,0,2012-11-18 04:26:00
11:47 PM,32.0,28.4,87,30.63,10.0,Calm,Calm,-,N/A,,Clear,0,2012-11-18 04:47:00